Hourly Weather Bolshie Koryaki

Today, 20 June, Sunday

Time Temperature Precipitation Wind Pressure Humidity
00:00 +18°C° 0 mm 2 mps 750 mmHg 93%
01:00 +18°C° 0 mm 2 mps 750 mmHg 93%
02:00 +18°C° 0 mm 2 mps 750 mmHg 94%
03:00 +19°C° 0 mm 1 mps 750 mmHg 92%
04:00 +19°C° 0 mm 1 mps 750 mmHg 91%
05:00 +20°C° 0 mm 1 mps 750 mmHg 89%
06:00 +22°C° 0 mm 1 mps 750 mmHg 82%
07:00 +24°C° 0 mm 1 mps 750 mmHg 75%
08:00 +26°C° 0 mm 1 mps 750 mmHg 68%
09:00 +27°C° 0 mm 2 mps 750 mmHg 63%
10:00 +28°C° 0 mm 2 mps 750 mmHg 58%
11:00 +29°C° 0 mm 2 mps 750 mmHg 54%
12:00 +30°C° 0 mm 2 mps 749 mmHg 51%
13:00 +31°C° 0 mm 2 mps 749 mmHg 49%
14:00 +31°C° 0 mm 3 mps 749 mmHg 46%
15:00 +31°C° 0 mm 2 mps 749 mmHg 49%
16:00 +30°C° 0 mm 2 mps 748 mmHg 52%
17:00 +30°C° 0 mm 2 mps 748 mmHg 54%
18:00 +28°C° 0 mm 2 mps 748 mmHg 64%
19:00 +26°C° 0 mm 2 mps 748 mmHg 74%
20:00 +24°C° 0 mm 2 mps 748 mmHg 83%
21:00 +23°C° 0 mm 2 mps 748 mmHg 86%
22:00 +21°C° 0 mm 2 mps 748 mmHg 88%
23:00 +20°C° 0 mm 2 mps 748 mmHg 90%

Tomorrow, 21 June, Monday

Time Temperature Precipitation Wind Pressure Humidity
00:00 +21°C° 0 mm 1 mps 748 mmHg 91%
01:00 +20°C° 0 mm 1 mps 748 mmHg 92%
02:00 +19°C° 0 mm 1 mps 748 mmHg 93%
03:00 +20°C° 0 mm 1 mps 748 mmHg 90%
04:00 +20°C° 0 mm 1 mps 748 mmHg 88%
05:00 +20°C° 0 mm 1 mps 748 mmHg 86%
06:00 +20°C° 0 mm 2 mps 748 mmHg 79%
07:00 +23°C° 0 mm 2 mps 748 mmHg 72%
08:00 +24°C° 0 mm 2 mps 748 mmHg 66%
09:00 +26°C° 0 mm 3 mps 748 mmHg 58%
10:00 +28°C° 0 mm 3 mps 748 mmHg 51%
11:00 +29°C° 0 mm 3 mps 748 mmHg 44%
12:00 +30°C° 0 mm 3 mps 748 mmHg 42%
13:00 +30°C° 0 mm 3 mps 747 mmHg 39%
14:00 +31°C° 0 mm 3 mps 747 mmHg 37%
15:00 +31°C° 0 mm 3 mps 747 mmHg 41%
16:00 +30°C° 0 mm 3 mps 747 mmHg 44%
17:00 +30°C° 0 mm 2 mps 747 mmHg 48%
18:00 +28°C° 0 mm 2 mps 747 mmHg 57%
19:00 +26°C° 0 mm 2 mps 747 mmHg 66%
20:00 +24°C° 0 mm 2 mps 746 mmHg 74%
21:00 +23°C° 0 mm 2 mps 746 mmHg 78%
22:00 +21°C° 0 mm 2 mps 747 mmHg 82%
23:00 +20°C° 0 mm 2 mps 747 mmHg 86%

Day after tomorrow, 22 June, Tuesday

Time Temperature Precipitation Wind Pressure Humidity
00:00 +20°C° 0 mm 2 mps 747 mmHg 90%
01:00 +19°C° 0 mm 2 mps 747 mmHg 93%
02:00 +19°C° 0 mm 2 mps 747 mmHg 97%
03:00 +19°C° 0 mm 2 mps 747 mmHg 95%
04:00 +20°C° 0 mm 2 mps 747 mmHg 94%
05:00 +20°C° 0 mm 2 mps 747 mmHg 93%
06:00 +22°C° 0 mm 3 mps 747 mmHg 83%
07:00 +25°C° 0 mm 3 mps 747 mmHg 74%
08:00 +27°C° 0 mm 4 mps 747 mmHg 65%
09:00 +28°C° 0 mm 4 mps 747 mmHg 58%
10:00 +30°C° 0 mm 4 mps 747 mmHg 51%
11:00 +32°C° 0 mm 4 mps 747 mmHg 44%
12:00 +33°C° 0 mm 5 mps 747 mmHg 42%
13:00 +33°C° 0 mm 5 mps 746 mmHg 41%
14:00 +34°C° 0 mm 5 mps 746 mmHg 39%
15:00 +33°C° 0 mm 4 mps 746 mmHg 43%
16:00 +33°C° 0 mm 4 mps 746 mmHg 46%
17:00 +33°C° 0 mm 3 mps 746 mmHg 50%
18:00 +29°C° 0 mm 3 mps 746 mmHg 60%
19:00 +27°C° 0 mm 2 mps 746 mmHg 70%
20:00 +25°C° 0 mm 2 mps 746 mmHg 80%
21:00 +24°C° 0 mm 2 mps 747 mmHg 83%
22:00 +23°C° 0 mm 2 mps 747 mmHg 87%
23:00 +21°C° 0 mm 2 mps 747 mmHg 90%

23 June, Wednesday

Time Temperature Precipitation Wind Pressure Humidity
00:00 +21°C° 0 mm 2 mps 747 mmHg 92%
01:00 +20°C° 0 mm 2 mps 747 mmHg 94%
02:00 +20°C° 0 mm 2 mps 747 mmHg 96%
03:00 +20°C° 0 mm 2 mps 747 mmHg 94%
04:00 +20°C° 0 mm 2 mps 748 mmHg 93%
05:00 +20°C° 0 mm 2 mps 748 mmHg 92%
06:00 +23°C° 0 mm 2 mps 748 mmHg 84%
07:00 +26°C° 0 mm 2 mps 748 mmHg 76%
08:00 +28°C° 0 mm 3 mps 748 mmHg 68%
09:00 +29°C° 0 mm 3 mps 748 mmHg 61%
10:00 +31°C° 0 mm 3 mps 748 mmHg 54%
11:00 +33°C° 0 mm 4 mps 748 mmHg 47%
12:00 +34°C° 0 mm 4 mps 748 mmHg 45%
13:00 +34°C° 0 mm 4 mps 748 mmHg 43%
14:00 +35°C° 0 mm 4 mps 748 mmHg 41%
15:00 +34°C° 0 mm 3 mps 748 mmHg 44%
16:00 +34°C° 0 mm 3 mps 748 mmHg 47%
17:00 +34°C° 0 mm 3 mps 748 mmHg 50%
18:00 +30°C° 0 mm 2 mps 748 mmHg 59%
19:00 +28°C° 0 mm 2 mps 748 mmHg 68%
20:00 +26°C° 0 mm 2 mps 748 mmHg 76%
21:00 +25°C° 0 mm 2 mps 748 mmHg 78%
22:00 +25°C° 0 mm 2 mps 748 mmHg 81%
23:00 +24°C° 0 mm 2 mps 748 mmHg 83%

24 June, Thursday

Time Temperature Precipitation Wind Pressure Humidity
00:00 +23°C° 0 mm 2 mps 748 mmHg 85%
01:00 +23°C° 0 mm 2 mps 748 mmHg 87%
02:00 +21°C° 0 mm 2 mps 748 mmHg 88%
03:00 +21°C° 0 mm 2 mps 748 mmHg 88%
04:00 +21°C° 0 mm 2 mps 748 mmHg 88%
05:00 +23°C° 0 mm 2 mps 748 mmHg 87%
06:00 +25°C° 0 mm 2 mps 748 mmHg 80%
07:00 +27°C° 0 mm 2 mps 748 mmHg 72%
08:00 +28°C° 0 mm 3 mps 748 mmHg 65%
09:00 +30°C° 0 mm 3 mps 748 mmHg 59%
10:00 +31°C° 0 mm 3 mps 748 mmHg 53%
11:00 +33°C° 0 mm 4 mps 748 mmHg 47%
12:00 +34°C° 0 mm 4 mps 748 mmHg 46%
13:00 +34°C° 0 mm 4 mps 748 mmHg 44%
14:00 +35°C° 0 mm 4 mps 748 mmHg 43%
15:00 +34°C° 0 mm 3 mps 748 mmHg 45%
16:00 +34°C° 0 mm 3 mps 747 mmHg 48%
17:00 +33°C° 0 mm 3 mps 747 mmHg 51%
18:00 +30°C° 0 mm 2 mps 747 mmHg 60%
19:00 +29°C° 0 mm 2 mps 747 mmHg 70%
20:00 +27°C° 0 mm 2 mps 746 mmHg 79%
21:00 +26°C° 0 mm 2 mps 746 mmHg 80%
22:00 +25°C° 0 mm 2 mps 746 mmHg 81%
23:00 +24°C° 0 mm 2 mps 746 mmHg 83%

25 June, Friday

Time Temperature Precipitation Wind Pressure Humidity
00:00 +24°C° 0 mm 2 mps 746 mmHg 84%
01:00 +23°C° 0 mm 2 mps 746 mmHg 86%
02:00 +23°C° 0 mm 2 mps 746 mmHg 87%
03:00 +23°C° 0.3 mm 2 mps 746 mmHg 89%
04:00 +23°C° 0.3 mm 2 mps 746 mmHg 91%
05:00 +23°C° 0.3 mm 2 mps 746 mmHg 92%
06:00 +25°C° 0 mm 2 mps 746 mmHg 85%
07:00 +27°C° 0 mm 2 mps 746 mmHg 78%
08:00 +28°C° 0 mm 3 mps 745 mmHg 71%
09:00 +30°C° 0 mm 3 mps 745 mmHg 62%
10:00 +33°C° 0 mm 4 mps 745 mmHg 53%
11:00 +34°C° 0 mm 4 mps 745 mmHg 44%
12:00 +34°C° 0 mm 4 mps 745 mmHg 43%
13:00 +35°C° 0 mm 4 mps 745 mmHg 41%
14:00 +35°C° 0 mm 5 mps 745 mmHg 40%
15:00 +34°C° 0 mm 5 mps 744 mmHg 43%
16:00 +33°C° 0 mm 5 mps 743 mmHg 46%
17:00 +33°C° 0 mm 5 mps 743 mmHg 49%
18:00 +29°C° 0.2 mm 4 mps 743 mmHg 60%
19:00 +27°C° 0.2 mm 3 mps 743 mmHg 71%
20:00 +25°C° 0.2 mm 2 mps 743 mmHg 82%
21:00 +24°C° 0.1 mm 2 mps 743 mmHg 86%
22:00 +23°C° 0.1 mm 2 mps 743 mmHg 90%
23:00 +21°C° 0.1 mm 2 mps 743 mmHg 94%
Show more